Track COSMOS 618 now! 10-day predictions COSMOS 618 is classified as:
1 6986U 73104B 19047.85977301 -.00000003 +00000-0 +84819-4 0 9993 2 6986 074.0289 290.2476 0027515 182.2716 252.6682 12.49885242060707